Location: Mason
(37.5237°N, 89.2543°W)
Time: 07:55:43
(UTC+00:00)

YAOGAN 6 - Pass Details

Date: 24 January 2021
Orbit: 464 x 503 km, 97.0° (Epoch: 08 March)

Event Time Altitude Azimuth Distance (km) Brightness Sun altitude
Rises 12:12:48 0° 1° (N) 2,609 6.1 -10.8°
Reaches altitude 10° 12:15:00 10° 352° (N) 1,720 5.1 -10.4°
Maximum altitude 12:18:23 34° 287° (WNW) 852 3.3 -9.7°
Drops below altitude 10° 12:21:43 10° 221° (SW) 1,704 5.1 -9.1°
Sets 12:23:54 0° 212° (SSW) 2,580 6.1 -8.7°
